User: anonymous   Login
Location: Stara Lesna
(49.1528°N, 20.2911°E)
Time: 00:37:47
(UTC+01:00)
Language:

STARLINK-74 - Orbit

View from above orbital plane
View from above orbital plane
View from above satellite
View from above satellite

Ground track
Ground track

The orbit data is extracted from the following two-line orbital elements,

1 44293U 19029BL  19317.90506590  .00000416  00000-0  47836-4 0  9991
2 44293  53.0057 112.2985 0002412 117.7603 242.3630 15.05476844 27391
Epoch (UTC): 13 November 2019 21:43:17
Eccentricity: 0.0002412
inclination: 53.0057°
perigee height: 548 km
apogee height: 552 km
right ascension of ascending node: 112.2985°
argument of perigee: 117.7603°
revolutions per day: 15.05476844
mean anomaly at epoch: 242.3630°
orbit number at epoch: 2739

The dashed part of the orbit path shows where the satellite is in the earth's shadow,  

DLR